Temp
2 2 3 3 3 3 3 3 2 2 2 2 2 2 2 2 2 2 2 2 2 2 2 2 2 2 3 3 3 3 3 3 3 3 3 3 2 2 2 2 2 1 0 -0 -1 -0 -0 0 1 0 0 1
2 2 2 2 2 3 2 2 2 2 2 2 2 2 2 2 2 2 2 2 2 2 2 2 2 2 2 2 2 3 3 3 3 3 3 3 3 2 2 2 2 2 1 0 -1 -1 -0 -0 0 0 0 0
2 2 2 2 2 2 2 2 2 2 2 2 2 1 2 2 1 1 2 2 2 2 1 1 1 1 2 2 2 2 2 2 2 2 3 3 3 3 3 2 2 2 1 1 0 -1 -1 -0 -0 -0 0 -0
1 1 2 2 2 2 2 2 2 2 1 1 1 1 1 1 1 1 1 2 2 2 1 1 1 1 2 2 2 2 2 2 2 2 2 2 3 3 3 3 2 2 2 1 1 0 -1 -1 -0 -0 -0 -0
1 1 1 1 1 1 1 1 1 1 1 1 1 1 1 1 1 1 1 1 2 1 1 1 1 1 1 2 2 2 2 2 2 2 2 2 2 2 2 3 2 2 2 2 1 1 0 -0 -1 -1 -1 -0
1 1 1 1 1 1 1 1 1 1 1 1 1 1 1 1 1 1 1 1 1 1 1 1 1 1 1 1 1 1 1 1 1 1 1 2 2 2 2 2 2 2 2 2 2 1 1 -0 -0 -1 -1 -1
0 0 1 1 1 1 1 1 1 1 1 0 1 0 0 0 0 0 0 1 1 0 0 0 0 0 0 0 0 0 0 0 1 1 1 1 1 1 2 2 2 2 2 1 1 1 1 0 -0 -0 -1 -1
0 0 0 0 0 0 0 0 0 0 0 0 0 0 0 0 -0 -0 -0 0 -0 -0 -0 0 0 0 0 -0 -0 -0 -0 0 0 0 0 1 1 1 1 1 1 1 1 1 1 1 1 1 -0 -0 -0 -1
-0 -0 -0 0 0 0 0 0 0 0 0 0 0 0 -0 -0 -0 -0 -0 -0 -0 -1 -0 -0 -0 -0 -0 -0 -0 -0 -0 -0 -0 -0 -0 0 0 0 0 1 1 1 1 1 0 0 0 0 -0 -1 -0 -0
-0 -0 -0 -0 -0 -0 -0 -0 -0 -0 -0 -0 -0 -0 -0 -0 -1 -1 -1 -1 -1 -1 -1 -1 -1 -1 -1 -1 -1 -1 -1 -1 -1 -1 -1 -1 -0 -0 -0 -0 -0 0 -0 -0 -0 -0 -1 -0 -1 -1 -1 -1
-1 -0 -1 -1 -1 -1 -1 -1 -1 -1 -1 -1 -1 -1 -1 -1 -1 -1 -1 -1 -1 -1 -1 -1 -1 -1 -1 -1 -1 -2 -2 -2 -2 -2 -2 -1 -1 -1 -1 -1 -1 -1 -1 -1 -1 -1 -2 -1 -1 -2 -2 -2
-1 -1 -1 -1 -1 -1 -1 -1 -1 -1 -1 -1 -1 -1 -1 -1 -1 -1 -1 -1 -1 -2 -2 -2 -2 -2 -2 -2 -2 -3 -3 -3 -3 -3 -3 -2 -2 -2 -2 -2 -2 -2 -2 -2 -2 -2 -3 -3 -3 -3 -3 -3
-1 -1 -1 -1 -1 -1 -1 -2 -2 -1 -2 -2 -2 -2 -1 -1 -1 -1 -2 -2 -2 -2 -2 -2 -2 -2 -2 -3 -3 -3 -4 -4 -4 -4 -3 -3 -3 -3 -3 -3 -2 -3 -3 -3 -3 -3 -3 -4 -4 -4 -4 -4
-1 -1 -1 -1 -2 -2 -2 -2 -2 -2 -2 -2 -2 -2 -2 -2 -2 -2 -2 -2 -2 -2 -2 -2 -2 -3 -3 -3 -4 -4 -4 -5 -4 -4 -4 -4 -4 -4 -4 -4 -3 -3 -4 -4 -4 -4 -4 -5 -5 -5 -5 -5
-1 -1 -1 -2 -2 -2 -2 -2 -2 -2 -3 -3 -3 -3 -2 -2 -2 -2 -2 -2 -2 -3 -3 -3 -3 -3 -4 -4 -4 -5 -5 -5 -5 -5 -5 -5 -5 -5 -5 -5 -5 -4 -5 -5 -6 -5 -5 -6 -6 -6 -6 -6
-2 -2 -2 -2 -2 -2 -2 -3 -3 -3 -3 -3 -3 -3 -3 -3 -3 -3 -3 -3 -3 -3 -3 -3 -4 -4 -4 -4 -5 -5 -5 -6 -6 -6 -6 -6 -6 -6 -6 -6 -6 -6 -6 -6 -6 -6 -6 -6 -7 -7 -7 -7
-2 -2 -2 -2 -2 -3 -3 -3 -3 -3 -4 -4 -4 -4 -3 -3 -3 -3 -3 -3 -3 -3 -4 -4 -4 -4 -5 -5 -5 -6 -6 -6 -6 -6 -6 -6 -6 -6 -6 -6 -6 -6 -7 -7 -7 -7 -7 -7 -7 -7 -7 -8
-3 -2 -2 -3 -3 -3 -3 -3 -4 -4 -4 -4 -4 -4 -4 -4 -4 -4 -4 -4 -4 -4 -4 -4 -5 -5 -5 -5 -6 -6 -7 -7 -7 -7 -7 -7 -7 -7 -7 -7 -7 -7 -7 -8 -7 -7 -7 -8 -8 -8 -8 -8
-3 -3 -3 -3 -3 -3 -4 -4 -4 -4 -4 -5 -4 -4 -4 -4 -4 -4 -4 -4 -5 -5 -5 -5 -5 -5 -6 -6 -6 -7 -7 -7 -7 -7 -7 -8 -8 -8 -8 -8 -8 -8 -8 -8 -8 -8 -8 -8 -9 -8 -9 -9
-3 -3 -3 -3 -4 -4 -4 -4 -4 -5 -5 -5 -5 -5 -5 -5 -5 -5 -5 -5 -5 -5 -5 -5 -6 -6 -6 -6 -7 -7 -7 -8 -8 -8 -8 -8 -8 -8 -8 -8 -8 -8 -8 -8 -8 -8 -8 -9 -9 -9 -9 -10
-3 -4 -4 -4 -4 -4 -5 -5 -5 -5 -5 -5 -5 -6 -6 -6 -6 -6 -6 -6 -6 -6 -6 -6 -6 -6 -7 -7 -7 -7 -8 -8 -8 -8 -8 -9 -9 -9 -9 -9 -9 -9 -9 -9 -9 -9 -9 -9 -9 -9 -10 -10
-3 -4 -4 -5 -5 -5 -5 -5 -5 -5 -6 -6 -6 -6 -6 -6 -6 -6 -6 -6 -6 -6 -6 -6 -7 -7 -7 -7 -7 -8 -8 -9 -9 -9 -9 -9 -9 -9 -9 -9 -9 -9 -9 -9 -9 -9 -9 -9 -10 -10 -10 -10
-4 -4 -4 -5 -5 -5 -5 -6 -6 -6 -6 -6 -6 -7 -7 -7 -7 -7 -7 -7 -7 -7 -7 -7 -7 -7 -7 -8 -8 -8 -9 -9 -9 -9 -9 -9 -10 -10 -10 -9 -9 -10 -10 -10 -10 -10 -10 -10 -10 -10 -10 -11
-4 -5 -5 -5 -5 -5 -6 -6 -6 -6 -6 -7 -7 -7 -7 -7 -7 -7 -7 -7 -7 -7 -7 -7 -7 -8 -8 -8 -8 -8 -9 -9 -10 -10 -10 -10 -10 -10 -10 -10 -10 -10 -10 -10 -10 -10 -10 -10 -11 -11 -11 -11
-5 -5 -6 -6 -6 -6 -6 -6 -6 -6 -7 -7 -7 -7 -7 -8 -7 -7 -8 -8 -8 -8 -8 -8 -8 -8 -8 -8 -8 -9 -9 -10 -10 -10 -10 -10 -10 -10 -10 -10 -10 -10 -10 -10 -11 -11 -11 -11 -11 -11 -11 -11
-5 -5 -6 -6 -6 -6 -6 -6 -6 -6 -7 -7 -7 -7 -8 -8 -8 -8 -8 -8 -8 -8 -8 -8 -8 -8 -9 -9 -9 -9 -10 -10 -11 -11 -11 -11 -11 -11 -11 -11 -11 -11 -11 -11 -11 -11 -11 -11 -11 -11 -11 -11
-5 -5 -6 -6 -7 -7 -7 -7 -6 -6 -7 -7 -7 -7 -8 -8 -8 -8 -8 -8 -8 -8 -8 -8 -9 -9 -9 -9 -9 -9 -10 -10 -11 -11 -11 -11 -11 -11 -11 -11 -11 -11 -11 -12 -12 -12 -12 -12 -12 -12 -12 -12
-5 -5 -6 -6 -7 -7 -7 -7 -7 -7 -7 -7 -7 -7 -8 -8 -8 -8 -9 -9 -9 -9 -9 -9 -9 -9 -9 -9 -10 -10 -10 -10 -11 -12 -12 -12 -12 -12 -12 -12 -12 -12 -12 -12 -12 -12 -12 -12 -12 -12 -12 -12
-5 -6 -6 -6 -7 -7 -7 -7 -7 -7 -7 -7 -7 -7 -8 -8 -8 -9 -9 -9 -9 -9 -9 -9 -9 -9 -10 -10 -10 -10 -10 -11 -11 -12 -12 -12 -12 -12 -12 -12 -12 -12 -12 -12 -13 -13 -13 -13 -13 -12 -12 -12
-6 -6 -6 -7 -7 -7 -7 -7 -7 -8 -8 -8 -7 -7 -8 -8 -8 -9 -9 -9 -10 -9 -9 -9 -9 -10 -10 -10 -10 -10 -11 -11 -11 -12 -12 -12 -12 -12 -13 -12 -12 -13 -13 -13 -13 -13 -13 -13 -13 -13 -13 -13
-7 -7 -7 -7 -7 -7 -7 -7 -8 -8 -8 -8 -8 -8 -8 -8 -8 -9 -9 -10 -10 -10 -10 -10 -10 -10 -10 -10 -11 -11 -11 -11 -12 -12 -12 -13 -13 -13 -13 -13 -13 -13 -13 -13 -13 -13 -13 -13 -13 -13 -13 -13
Height
3108 3106 3105 3104 3102 3101 3099 3098 3097 3095 3094 3093 3092 3091 3089 3088 3087 3086 3085 3083 3082 3080 3079 3077 3076 3074 3073 3072 3071 3070 3070 3072 3071 3070 3070 3069 3068 3067 3067 3066 3067 3066 3066 3066 3067 3068 3070 3071 3072 3073 3076 3078
3105 3103 3102 3100 3099 3097 3096 3094 3093 3092 3091 3090 3089 3087 3086 3085 3084 3082 3081 3080 3078 3076 3075 3074 3072 3070 3068 3067 3067 3066 3066 3066 3066 3065 3065 3065 3064 3063 3062 3062 3062 3062 3061 3061 3061 3063 3064 3066 3068 3069 3070 3072
3102 3100 3099 3097 3095 3094 3092 3091 3089 3088 3087 3086 3085 3083 3082 3080 3079 3078 3077 3076 3075 3073 3072 3071 3070 3067 3065 3063 3063 3063 3062 3062 3061 3060 3060 3060 3059 3059 3058 3057 3057 3057 3057 3056 3056 3057 3059 3061 3063 3064 3065 3066
3099 3097 3096 3094 3093 3091 3089 3088 3086 3085 3083 3082 3081 3079 3078 3076 3075 3074 3073 3071 3070 3069 3068 3068 3067 3064 3061 3060 3060 3059 3059 3058 3057 3056 3055 3055 3054 3054 3053 3053 3052 3052 3052 3051 3051 3051 3052 3055 3057 3059 3060 3060
3097 3095 3093 3092 3090 3089 3087 3085 3083 3081 3080 3079 3077 3075 3074 3072 3071 3069 3068 3067 3066 3065 3064 3063 3062 3060 3058 3057 3056 3056 3055 3054 3054 3052 3051 3050 3050 3049 3048 3048 3047 3047 3046 3046 3046 3045 3045 3047 3050 3052 3054 3055
3095 3093 3092 3090 3088 3086 3084 3082 3080 3079 3077 3075 3074 3072 3070 3068 3067 3065 3064 3062 3061 3060 3059 3058 3057 3056 3054 3053 3053 3052 3051 3050 3050 3048 3046 3046 3045 3044 3044 3043 3042 3042 3041 3040 3040 3039 3039 3040 3042 3044 3047 3049
3093 3091 3089 3088 3086 3084 3082 3080 3078 3076 3075 3073 3071 3069 3067 3065 3063 3062 3060 3058 3057 3056 3055 3053 3052 3052 3051 3050 3049 3048 3047 3046 3045 3044 3042 3041 3040 3039 3038 3038 3037 3036 3036 3035 3034 3033 3033 3033 3035 3037 3039 3041
3091 3089 3087 3086 3084 3081 3080 3078 3076 3074 3072 3071 3069 3067 3065 3063 3061 3059 3057 3055 3054 3052 3050 3049 3048 3047 3047 3046 3045 3044 3043 3042 3040 3039 3037 3036 3035 3034 3033 3033 3032 3030 3029 3029 3028 3027 3027 3026 3027 3029 3031 3033
3089 3087 3085 3083 3082 3079 3078 3076 3074 3072 3070 3068 3066 3065 3062 3060 3058 3056 3054 3052 3050 3048 3046 3044 3043 3042 3041 3041 3040 3039 3038 3037 3035 3034 3032 3030 3029 3028 3027 3027 3026 3025 3024 3023 3022 3021 3020 3020 3020 3021 3023 3025
3087 3085 3083 3081 3079 3077 3075 3073 3071 3069 3067 3065 3064 3062 3060 3058 3055 3053 3051 3049 3047 3045 3043 3041 3039 3038 3036 3035 3035 3034 3032 3031 3030 3029 3027 3025 3024 3023 3021 3021 3020 3020 3018 3017 3016 3015 3014 3014 3013 3013 3014 3016
3084 3083 3081 3079 3077 3075 3073 3071 3069 3067 3065 3062 3061 3059 3057 3055 3052 3050 3048 3046 3043 3042 3039 3037 3035 3033 3032 3030 3029 3028 3027 3026 3025 3024 3022 3021 3019 3017 3016 3015 3014 3014 3013 3011 3010 3009 3008 3007 3007 3006 3007 3008
3082 3080 3079 3076 3074 3072 3070 3068 3066 3064 3062 3059 3057 3055 3053 3051 3048 3046 3044 3042 3040 3038 3036 3033 3031 3029 3027 3026 3025 3023 3022 3021 3020 3019 3017 3016 3014 3013 3011 3010 3009 3008 3006 3005 3004 3003 3003 3002 3001 3000 3000 3000
3080 3077 3075 3073 3071 3069 3067 3065 3062 3060 3058 3056 3054 3051 3049 3047 3044 3042 3040 3038 3036 3034 3032 3029 3027 3025 3023 3022 3020 3019 3018 3017 3015 3014 3012 3011 3009 3008 3006 3004 3003 3002 3001 3000 2999 2997 2997 2996 2995 2994 2994 2994
3076 3074 3072 3070 3067 3065 3063 3061 3059 3057 3055 3052 3050 3048 3045 3043 3041 3039 3036 3034 3032 3031 3028 3026 3024 3022 3020 3018 3016 3014 3013 3012 3011 3009 3008 3006 3005 3003 3001 2999 2998 2996 2995 2994 2993 2992 2991 2990 2989 2988 2988 2988
3073 3070 3068 3066 3064 3062 3060 3058 3055 3053 3051 3049 3046 3044 3042 3040 3037 3035 3032 3030 3028 3026 3024 3022 3020 3018 3016 3014 3012 3010 3009 3008 3007 3005 3003 3002 3000 2999 2997 2995 2993 2991 2990 2989 2988 2987 2985 2985 2983 2982 2982 2981
3069 3067 3065 3062 3060 3058 3056 3054 3051 3049 3047 3044 3042 3040 3038 3036 3034 3031 3028 3026 3024 3022 3020 3018 3016 3014 3012 3010 3008 3006 3004 3003 3002 3001 2999 2997 2996 2994 2993 2991 2989 2987 2985 2985 2983 2982 2980 2979 2978 2976 2975 2975
3066 3064 3061 3059 3056 3054 3052 3050 3047 3045 3043 3040 3038 3036 3034 3033 3030 3028 3025 3022 3020 3018 3016 3014 3012 3010 3008 3005 3003 3001 3000 2998 2997 2996 2994 2993 2991 2989 2988 2986 2985 2982 2981 2980 2979 2977 2976 2974 2973 2971 2970 2970
3062 3060 3057 3055 3053 3050 3048 3045 3043 3041 3039 3037 3035 3032 3030 3028 3026 3024 3021 3019 3016 3014 3012 3010 3008 3005 3003 3001 2999 2997 2995 2993 2992 2991 2990 2988 2986 2985 2983 2982 2980 2978 2976 2975 2974 2973 2971 2969 2968 2967 2965 2965
3059 3056 3053 3051 3049 3046 3044 3042 3039 3037 3035 3032 3030 3027 3025 3023 3021 3019 3017 3014 3012 3009 3007 3005 3003 3000 2998 2996 2994 2992 2990 2988 2987 2986 2985 2984 2982 2980 2979 2977 2976 2974 2972 2971 2970 2969 2967 2965 2963 2962 2961 2960
3056 3052 3049 3047 3045 3042 3040 3038 3035 3032 3030 3028 3025 3023 3021 3019 3017 3015 3012 3010 3007 3005 3002 3000 2998 2995 2993 2991 2989 2987 2985 2984 2983 2981 2980 2979 2978 2976 2974 2973 2972 2970 2968 2967 2966 2964 2963 2961 2959 2958 2957 2956
3052 3049 3046 3043 3040 3038 3036 3033 3031 3028 3025 3023 3021 3018 3016 3014 3012 3010 3008 3005 3003 3000 2998 2996 2993 2991 2988 2986 2984 2983 2981 2979 2978 2976 2975 2975 2973 2971 2970 2969 2968 2966 2964 2963 2961 2960 2958 2957 2954 2954 2953 2952
3048 3045 3042 3039 3036 3033 3031 3029 3027 3024 3021 3019 3017 3014 3012 3010 3008 3006 3003 3001 2999 2996 2994 2992 2989 2987 2984 2982 2980 2978 2977 2975 2973 2972 2971 2970 2968 2967 2965 2964 2963 2962 2960 2959 2957 2956 2954 2953 2951 2950 2949 2948
3043 3040 3037 3035 3031 3029 3026 3024 3022 3020 3017 3015 3012 3010 3007 3005 3003 3001 2999 2997 2995 2992 2990 2987 2985 2982 2980 2978 2976 2974 2972 2970 2969 2967 2966 2965 2964 2962 2961 2960 2959 2958 2956 2955 2953 2952 2951 2949 2947 2946 2945 2945
3038 3036 3033 3030 3027 3024 3022 3019 3017 3015 3013 3011 3008 3006 3003 3000 2998 2996 2994 2992 2990 2988 2986 2983 2980 2977 2975 2973 2971 2969 2967 2966 2964 2963 2962 2961 2960 2959 2957 2956 2955 2954 2952 2951 2950 2948 2947 2945 2944 2942 2942 2941
3033 3031 3028 3025 3022 3019 3017 3014 3012 3010 3008 3006 3004 3002 2999 2996 2994 2992 2989 2987 2985 2983 2981 2978 2975 2972 2970 2968 2966 2964 2962 2961 2959 2958 2957 2956 2955 2954 2954 2952 2951 2950 2948 2947 2946 2945 2944 2942 2940 2939 2938 2937
3029 3026 3023 3020 3017 3015 3012 3009 3006 3004 3003 3001 2999 2997 2995 2992 2990 2987 2985 2982 2980 2978 2976 2973 2970 2968 2965 2963 2961 2959 2957 2956 2955 2954 2953 2952 2951 2950 2949 2948 2947 2946 2945 2943 2942 2941 2940 2939 2937 2936 2935 2934
3025 3021 3018 3015 3013 3010 3006 3004 3001 2999 2997 2995 2993 2991 2989 2987 2985 2982 2980 2977 2975 2973 2971 2968 2965 2963 2960 2958 2956 2954 2952 2951 2950 2949 2948 2948 2947 2946 2945 2944 2943 2942 2941 2940 2939 2938 2937 2936 2935 2932 2931 2931
3020 3016 3013 3010 3008 3005 3002 2999 2996 2994 2992 2990 2988 2985 2983 2981 2979 2977 2975 2972 2969 2968 2966 2963 2960 2958 2955 2953 2951 2949 2947 2946 2945 2945 2944 2943 2943 2942 2941 2940 2939 2939 2938 2937 2935 2934 2933 2932 2931 2929 2928 2928
3014 3011 3008 3004 3001 3000 2997 2994 2991 2989 2987 2985 2982 2980 2977 2975 2973 2971 2969 2966 2964 2962 2960 2958 2956 2953 2950 2948 2946 2944 2943 2941 2940 2940 2939 2939 2938 2937 2937 2936 2935 2935 2935 2934 2932 2931 2930 2929 2928 2926 2925 2925
3009 3006 3003 2999 2996 2994 2991 2988 2986 2984 2982 2978 2976 2974 2972 2969 2967 2965 2963 2961 2958 2956 2954 2953 2950 2948 2946 2943 2941 2939 2938 2936 2935 2935 2935 2934 2934 2933 2933 2932 2932 2931 2931 2930 2930 2928 2927 2926 2925 2923 2922 2921
3005 3002 2998 2994 2991 2988 2985 2983 2980 2978 2975 2972 2970 2968 2965 2963 2961 2959 2957 2955 2953 2951 2949 2947 2945 2943 2940 2938 2936 2934 2933 2932 2930 2929 2929 2929 2929 2928 2928 2928 2928 2927 2927 2926 2926 2925 2924 2923 2922 2920 2919 2918
Wind_Speed
25 26 25 25 25 24 24 24 24 24 25 25 25 25 25 25 25 26 27 28 29 29 30 30 31 32 32 33 33 35 35 35 35 36 36 37 38 39 40 40 41 46 52 55 56 56 57 59 62 62 60 61
24 25 26 25 25 25 25 25 25 25 26 26 26 26 26 26 26 27 28 29 29 30 30 31 32 32 33 34 35 36 37 38 38 38 38 38 39 40 40 41 41 42 47 53 57 59 59 60 62 63 63 63
26 25 26 26 26 26 26 26 27 27 27 28 27 27 27 27 27 28 29 30 29 30 31 31 31 33 33 34 36 37 38 39 40 41 41 41 41 41 42 42 42 42 43 48 54 59 61 62 63 64 65 65
27 26 26 26 26 26 27 27 28 28 28 29 29 29 29 29 29 29 30 31 31 31 32 32 31 32 33 35 36 37 39 39 40 42 42 43 43 43 44 44 44 44 44 45 48 54 59 63 66 66 66 67
26 27 27 27 27 27 27 28 29 29 30 30 30 31 30 31 31 31 32 33 33 33 34 33 32 32 34 35 36 37 39 40 41 42 43 44 44 45 45 46 46 46 46 46 47 50 53 58 65 69 69 68
26 26 27 27 27 27 27 28 29 30 30 31 31 32 32 32 32 33 34 34 35 35 35 35 34 33 34 36 37 38 39 41 41 42 44 44 45 46 46 47 47 47 47 47 48 49 51 52 57 67 72 71
26 26 27 27 27 28 28 28 29 30 30 31 32 32 33 33 33 34 34 35 35 36 36 36 35 34 35 36 38 38 39 41 41 42 44 44 45 46 47 47 48 49 48 48 48 49 51 51 51 57 67 73
26 26 27 27 28 28 29 29 30 30 31 32 32 32 33 33 34 34 35 36 36 37 37 37 37 36 36 37 38 39 40 41 42 43 44 45 45 46 47 47 47 48 49 48 48 49 50 52 51 51 57 68
26 27 28 29 29 30 30 31 31 32 32 33 33 33 33 33 34 35 35 36 36 37 38 38 39 38 38 38 38 39 40 41 42 43 45 46 46 47 47 47 47 47 48 48 48 49 50 51 52 51 52 58
29 29 30 30 31 32 32 33 33 33 34 34 34 34 34 34 35 35 35 36 37 37 38 39 39 40 40 40 40 40 41 42 42 43 44 46 47 48 48 48 47 47 47 48 48 48 49 50 51 51 52 53
31 31 31 32 33 33 33 33 34 34 35 35 35 35 34 34 35 36 36 36 37 37 38 39 40 40 40 41 41 41 41 42 42 43 43 45 46 47 48 48 47 47 47 47 47 47 47 48 50 51 51 52
33 33 33 34 34 35 35 35 35 36 36 36 36 36 35 35 36 36 36 36 37 37 39 39 40 41 41 41 41 41 41 42 42 43 43 44 45 46 47 48 47 47 47 47 47 46 46 46 48 49 50 50
34 35 35 35 36 36 36 36 37 37 37 37 37 37 37 36 37 37 37 37 37 38 39 40 40 41 41 41 42 41 41 41 42 42 43 43 44 45 46 47 47 47 47 46 46 46 45 45 46 47 48 48
36 36 37 36 37 37 37 37 38 38 38 38 38 38 37 37 38 38 38 38 38 38 39 40 41 40 41 41 41 42 41 41 42 42 42 43 43 43 44 46 47 47 46 46 45 45 44 43 45 46 47 46
37 37 38 37 37 38 38 38 38 39 39 39 39 38 38 38 39 39 39 39 39 39 39 40 41 40 41 41 41 41 41 41 41 41 42 42 42 42 43 44 46 46 46 45 44 43 43 43 43 45 46 45
38 38 38 38 38 38 38 38 39 39 39 40 39 39 39 38 39 39 40 40 40 40 40 40 40 40 40 41 41 41 41 41 41 40 40 41 41 41 42 42 44 45 46 44 43 42 42 42 42 44 45 43
39 39 39 39 39 39 39 39 39 39 40 40 40 40 39 38 39 39 40 41 40 40 40 40 40 40 40 40 40 40 41 41 41 40 40 40 40 40 41 42 42 44 45 43 42 41 41 41 41 42 44 42
40 41 41 40 40 40 40 39 39 39 40 40 40 40 40 39 39 39 39 40 40 40 40 40 40 40 39 39 39 40 40 41 41 40 40 39 39 40 40 41 42 43 44 42 41 40 39 39 39 40 42 40
41 42 42 42 41 41 41 40 40 40 40 41 41 41 41 40 40 40 39 40 40 40 40 40 40 39 39 39 39 39 40 41 40 40 39 39 39 39 39 40 41 42 42 41 40 39 38 37 37 38 39 38
41 42 43 43 42 42 42 41 40 41 41 41 42 42 41 41 40 40 40 40 40 40 40 40 40 39 39 39 39 39 40 40 40 40 39 38 38 39 39 39 40 41 41 40 38 38 36 35 35 36 36 36
42 42 43 43 43 42 42 42 41 41 41 41 42 42 42 41 41 40 40 40 40 40 40 40 39 39 39 39 39 39 39 40 40 40 39 38 37 38 39 39 39 40 39 38 37 36 35 33 34 34 34 34
44 44 43 44 44 44 43 43 42 41 42 42 41 42 42 42 42 41 40 40 40 40 40 40 39 39 39 39 39 40 39 39 39 39 39 38 37 38 38 38 39 39 38 36 35 34 33 32 32 32 33 33
47 46 46 45 45 45 44 44 43 42 42 42 42 42 42 43 43 41 41 41 40 40 40 40 40 39 38 38 39 39 39 39 39 38 38 37 37 37 37 38 38 38 36 35 33 32 30 29 31 31 32 32
49 49 48 47 47 47 46 45 45 44 43 42 42 42 42 43 43 42 42 42 41 40 40 40 40 39 39 38 39 39 39 39 38 38 38 37 37 37 37 37 37 37 35 33 31 30 28 27 29 30 31 32
50 50 50 50 50 49 48 48 47 45 44 43 42 42 43 44 44 43 43 43 42 41 41 40 40 40 39 39 39 39 39 39 38 38 38 37 37 37 36 36 36 36 34 32 30 28 26 26 28 29 30 31
51 51 51 51 51 51 51 51 50 48 46 45 44 43 43 45 45 44 44 44 43 42 41 41 41 40 40 39 39 39 39 39 38 38 37 37 37 36 36 35 35 34 33 31 29 27 25 25 27 28 29 30
50 50 51 51 51 52 53 53 53 51 49 48 47 45 45 45 45 45 45 45 44 42 42 42 42 41 40 40 39 39 39 39 38 38 37 37 37 36 35 34 34 33 32 30 29 27 25 25 25 28 29 28
48 49 50 51 51 51 53 54 55 54 52 50 49 48 47 47 46 46 46 46 46 44 42 42 42 42 41 40 39 39 39 39 39 38 37 37 37 36 35 34 33 31 30 29 28 26 25 25 25 27 29 28
49 49 49 50 51 51 52 53 54 55 55 53 52 50 49 48 48 47 47 47 47 45 44 42 42 42 42 41 40 39 39 39 39 39 38 37 37 36 35 34 32 31 30 28 27 26 25 24 25 26 28 28
49 50 50 50 51 51 52 52 53 54 55 55 55 54 52 50 49 49 48 47 47 46 45 43 43 42 42 41 40 40 39 39 40 39 39 38 37 37 35 34 32 31 30 28 27 26 25 24 25 26 27 29
48 49 50 51 51 51 51 52 52 53 54 56 56 56 56 53 51 50 49 47 47 47 45 44 43 42 41 41 40 40 39 39 39 40 40 38 37 37 36 34 32 31 30 29 28 26 25 24 24 25 27 28
Wind_Direction
302 302 302 302 302 302 302 303 303 303 303 303 302 302 302 301 300 299 297 296 297 298 298 297 297 297 296 296 296 295 293 291 288 286 285 285 285 285 284 282 278 271 264 259 257 258 257 257 257 258 255 254
304 305 305 306 306 306 306 306 306 306 306 306 305 304 303 302 302 300 298 297 298 299 298 298 298 298 298 299 298 296 295 293 291 288 286 285 284 284 284 283 281 277 271 264 258 255 254 254 253 253 254 252
308 308 308 309 309 309 309 309 309 309 309 308 308 307 306 305 304 302 300 300 299 299 298 297 297 297 299 299 298 296 295 294 293 290 288 287 284 283 283 283 282 279 276 271 264 257 253 251 249 249 252 252
311 311 311 312 311 311 312 312 312 312 312 311 310 309 308 308 307 305 303 302 301 300 297 297 296 297 298 297 296 295 294 293 292 291 289 288 287 285 283 282 282 280 278 275 271 264 257 251 248 247 248 250
313 313 314 313 313 313 314 314 314 314 314 313 312 311 311 311 309 308 306 304 304 302 299 299 299 299 299 297 296 294 293 292 290 290 289 288 287 285 284 283 281 281 280 278 274 271 265 257 250 246 245 246
315 315 315 316 316 317 317 317 317 316 315 314 314 313 313 312 311 309 307 306 305 303 301 301 302 301 300 298 296 295 293 292 291 290 289 288 287 286 285 284 282 281 280 280 278 275 272 266 256 249 244 242
318 318 318 319 319 320 320 320 319 318 317 316 315 314 313 313 312 309 307 306 305 302 301 301 301 300 298 296 295 294 293 292 292 291 289 289 288 287 285 285 284 283 281 280 280 278 276 273 266 255 247 242
320 321 320 321 321 321 321 321 320 319 318 317 317 315 314 313 311 309 307 306 304 302 302 301 301 299 297 296 295 294 293 292 292 291 290 289 289 288 287 286 285 285 283 282 281 280 279 277 274 266 256 247
321 321 320 321 321 321 320 320 320 320 319 318 318 317 316 314 312 310 308 306 304 303 303 302 301 300 298 297 296 295 294 293 293 292 291 290 290 289 289 288 287 286 285 284 283 282 281 280 279 274 266 256
319 319 319 319 318 318 319 319 319 319 319 318 318 317 317 315 313 311 309 307 306 304 303 302 301 300 299 299 298 297 296 295 294 293 293 292 292 291 291 290 289 288 287 286 285 284 283 282 281 279 273 266
316 316 316 315 315 315 316 316 316 317 316 316 317 317 317 316 314 312 311 309 307 305 303 301 301 301 300 299 299 298 297 297 296 295 294 293 293 292 292 292 291 290 289 288 287 286 286 284 283 282 279 272
313 313 313 312 312 312 312 313 313 314 314 314 315 315 316 316 315 313 312 310 308 306 304 302 302 301 300 300 299 298 298 297 296 295 295 294 293 294 293 293 292 292 291 290 289 288 288 287 286 284 282 277
312 311 311 311 310 310 310 311 311 311 311 312 313 314 316 316 314 313 312 310 309 307 305 303 302 301 300 299 298 298 298 298 297 296 295 295 295 295 294 294 293 293 293 293 292 291 290 290 288 287 285 280
312 311 310 310 309 308 308 308 308 308 309 310 312 313 314 315 313 312 312 311 309 308 305 303 302 301 299 298 298 297 297 297 296 296 295 295 295 295 295 295 295 294 294 295 294 293 292 291 290 289 287 283
311 310 310 310 309 308 307 307 306 307 307 309 310 311 312 313 312 312 311 311 310 308 306 304 302 301 299 298 297 297 297 296 295 295 295 295 295 295 296 295 295 295 295 296 296 295 293 292 292 291 289 285
310 310 310 310 309 307 306 305 305 305 306 307 308 309 310 311 311 311 311 310 309 307 305 303 301 300 298 297 297 296 296 295 295 294 294 294 295 295 295 296 296 295 296 296 296 295 294 293 292 292 290 286
310 310 310 310 309 307 306 305 304 304 305 305 306 307 308 309 310 310 310 309 308 306 304 302 301 299 298 297 296 296 295 294 294 294 294 294 295 295 295 296 296 296 296 296 296 295 294 293 292 292 291 287
311 311 310 309 308 307 306 305 304 304 303 303 304 305 306 307 308 308 308 308 307 305 303 302 301 299 298 297 296 295 294 294 294 293 293 293 294 295 296 297 297 297 296 296 296 295 294 293 292 291 291 287
312 311 310 309 308 307 306 305 304 303 302 302 303 304 305 306 306 307 307 307 306 305 304 302 301 300 299 297 296 295 294 293 293 293 292 293 294 295 296 297 297 297 297 297 295 294 294 292 290 290 289 285
312 310 309 307 307 306 305 304 304 303 303 303 303 303 303 304 304 305 306 306 305 305 304 303 301 300 299 298 296 294 293 292 292 292 292 292 293 294 296 297 298 298 297 297 296 294 294 291 287 287 287 283
312 309 307 306 306 305 304 304 304 303 303 302 301 301 301 302 303 304 304 304 304 304 304 303 301 300 299 298 296 293 291 291 291 290 291 292 293 294 295 297 298 298 298 297 296 294 293 289 285 284 283 281
312 309 306 305 305 304 304 304 303 303 302 301 301 301 301 301 301 302 302 302 302 303 303 302 301 300 299 297 295 293 291 290 289 289 290 290 292 294 295 297 297 298 298 298 296 294 293 288 283 280 279 278
311 308 306 305 303 303 303 303 302 302 302 301 301 301 301 301 301 301 301 301 301 301 302 302 302 301 299 297 294 292 290 289 288 288 288 289 290 292 294 295 296 297 297 297 296 294 293 288 281 278 276 275
309 307 306 304 302 301 301 301 301 301 301 301 301 301 301 300 301 301 300 300 299 300 300 302 302 301 300 298 295 293 290 288 287 287 286 287 288 290 292 294 295 296 297 296 296 294 292 288 282 278 276 275
308 306 304 302 301 300 300 299 299 299 300 299 299 300 300 300 300 300 300 299 299 299 300 301 302 302 301 299 296 294 290 287 286 285 285 285 287 288 290 292 293 294 296 296 296 295 293 290 285 282 278 276
308 305 303 301 300 299 299 298 298 299 299 298 298 298 298 298 298 299 299 298 298 298 299 300 301 302 301 299 297 294 291 288 285 284 283 283 285 286 288 290 291 293 294 296 296 295 294 290 287 285 281 279
308 305 302 300 299 298 297 297 297 297 297 297 297 297 296 296 296 296 297 297 297 297 298 298 300 301 301 300 298 295 292 288 284 282 281 281 282 284 286 287 289 291 292 294 295 294 293 290 287 286 284 282
308 304 302 300 298 296 295 295 295 295 295 295 295 293 293 294 294 293 294 295 295 296 297 297 298 300 300 300 298 295 292 288 284 281 279 279 280 282 284 285 286 288 289 291 292 292 292 290 288 286 286 285
308 305 302 300 298 296 294 293 292 292 293 292 291 290 289 289 290 291 291 291 292 293 295 296 297 298 299 298 297 295 292 288 284 280 278 277 278 280 281 282 283 284 285 287 289 290 291 289 288 286 286 285
308 305 303 300 298 296 294 293 291 290 290 289 288 288 286 285 286 287 287 289 289 290 292 293 295 296 297 297 296 294 291 288 284 280 276 275 276 277 278 279 280 281 282 283 284 286 288 288 288 287 286 285
307 304 302 301 299 297 296 294 292 290 288 286 286 286 285 284 283 283 284 285 287 289 290 291 292 294 296 295 294 292 290 287 283 279 275 273 273 274 275 276 276 277 279 280 281 282 283 285 286 287 286 286